[[{"header":{"parameterUnit":"m.s-1","parameterCategory":1,"la1":30.2991,"la2":30.254,"lo1":-89.0895,"lo2":-89.0444,"dy":0.0017,"dx":0.0017,"nx":28,"ny":28,"refTime":"2025-06-13T21:00:00:Z","depth":0,"parameterNumber":2,"parameterNumberName":"U-component_of_WINDS"},"data":[0,0,0,0,0,0,0,0,0,0,0,0,0,0,0,0,0,0,0,0,0,0,0,0,0,0,0,0,0,0,0,0,0,0,0,0,0,0,0,0,0,0,0,0,0,0,0,0,0,0,0,0,0,0,0,0,0,0,1.6373,1.6374,0,1.6444,1.6445,1.6445,1.6448,1.6447,1.6447,1.6446,1.6518,1.6521,1.6524,0,0,0,0,0,0,0,0,0,0,0,0,0,1.6238,1.624,1.6373,1.6374,1.6375,1.6444,1.6445,1.6446,1.6448,1.6447,1.6446,1.6445,1.6517,1.6521,1.6524,0,0,0,0,0,0,0,0,0,0,0,0,0,1.6301,1.6241,1.6373,1.6384,1.6386,1.6443,1.6445,1.6446,1.6449,1.6447,1.6446,1.6445,1.6516,1.652,1.6524,1.6575,0,0,1.6537,1.6539,0,0,0,0,0,0,0,0,1.6298,1.6306,1.6382,1.6384,1.6386,1.6436,1.6424,1.6489,1.6449,1.6425,1.6446,1.6444,1.6492,1.6498,1.6514,1.6578,1.6581,1.6537,1.654,1.6541,1.6542,0,0,0,0,0,0,0,1.6293,1.6303,1.6401,1.6383,1.6385,1.6385,1.6393,1.6436,1.6465,1.6427,1.6427,1.6436,1.6493,1.651,1.6516,1.6582,1.6537,1.6541,1.6543,1.6545,1.6688,1.6689,0,0,0,0,0,0,1.6287,1.63,1.6399,1.6403,1.6338,1.6389,1.6397,1.6421,1.6464,1.647,1.6437,1.6436,1.6504,1.6511,1.6518,1.6577,1.6541,1.6545,1.6547,1.6686,1.6688,1.6689,0,0,0,0,0,0,1.6284,1.6296,1.6396,1.6351,1.6364,1.6392,1.6419,1.6423,1.644,1.6472,1.6477,1.6449,1.6503,1.6513,1.656,1.658,1.6547,1.6551,1.6685,1.6687,1.6689,1.6698,0,0,0,0,0,0,1.628,1.6295,1.6315,1.6352,1.6366,1.6437,1.642,1.6425,1.6447,1.6447,1.6485,1.649,1.6503,1.6554,1.6564,1.6585,1.6554,1.6683,1.6686,1.6688,1.6696,1.67,1.6703,0,0,0,0,0,1.6275,1.6315,1.6316,1.6328,1.6392,1.6438,1.6446,1.6461,1.6449,1.6469,1.6488,1.6488,1.6577,1.6559,1.657,1.6593,1.6682,1.6685,1.6688,1.6694,1.6699,1.6703,0,0,0,0,0,0,1.628,1.632,1.6321,1.6375,1.6403,1.6438,1.6464,1.6466,1.6498,1.6496,1.6512,1.6521,1.6567,1.6585,1.6564,1.6642,1.6628,1.6633,1.6629,1.6634,1.6637,1.6631,1.6557,0,0,0,0,0,1.6287,1.6322,1.6355,1.6398,1.6412,1.6436,1.6456,1.6465,1.6494,1.6506,1.653,1.6558,1.6592,1.6614,1.6647,1.6699,1.6706,1.672,1.6724,1.6727,1.6731,1.6756,1.6762,1.6699,1.6699,1.6699,0,0,1.6303,1.6329,1.635,1.64,1.6423,1.6457,1.6446,1.6483,1.6508,1.6512,1.6557,1.6575,1.6608,1.6657,1.668,1.6673,1.675,1.6731,1.6733,1.6735,1.676,1.6766,1.6771,1.6702,1.6701,1.6701,0,0,1.6347,1.6372,1.6409,1.6432,1.6466,1.6481,1.649,1.6525,1.6537,1.6583,1.6585,1.6615,1.6674,1.6696,1.6716,1.6766,1.6766,1.6777,1.6796,1.6821,1.6826,1.683,1.6846,1.6851,1.6781,1.6781,1.6781,0,1.6362,1.6414,1.6428,1.6465,1.6486,1.6491,1.6528,1.6549,1.6592,1.6606,1.6599,1.667,1.6693,1.6746,1.6758,1.6774,1.6783,1.6772,1.6824,1.6828,1.6833,1.6848,1.6854,1.6782,1.6782,1.6782,1.6781,0,1.6429,1.6464,1.649,1.6531,1.6555,1.6592,1.6611,1.6633,1.6639,1.6654,1.6699,1.6727,1.6764,1.6777,1.6784,1.683,1.6825,1.6821,1.6806,1.6839,1.6853,1.686,1.6783,1.6783,1.6782,1.6782,0,0,1.6479,1.6526,1.6535,1.6552,1.6589,1.6617,1.6653,1.6689,1.6706,1.6736,1.6765,1.6814,1.6809,1.683,1.684,1.6862,1.6896,1.6854,1.6855,1.6859,1.6946,1.6948,1.6954,1.6897,1.6899,1.69,1.6942,0,1.6526,1.659,1.6603,1.6658,1.6689,1.6693,1.6724,1.675,1.6765,1.6793,1.6809,1.6842,1.6835,1.6847,1.687,1.6887,1.6914,1.6885,1.6923,1.6924,1.6913,1.6962,1.6965,1.7004,1.6948,1.6949,1.695,0,1.6589,1.6619,1.6676,1.6707,1.6721,1.6748,1.6781,1.6809,1.6837,1.6846,1.6869,1.6875,1.6911,1.6895,1.6944,1.6924,1.694,1.6951,1.6953,1.6956,1.6938,1.6964,1.7017,1.7022,1.696,1.6959,1.6958,0,1.6617,1.6671,1.6712,1.6727,1.6764,1.6783,1.68,1.6827,1.6847,1.6875,1.6888,1.692,1.6938,1.6962,1.6976,1.6964,1.7023,1.701,1.703,1.703,1.7041,1.704,1.7095,1.7055,1.7055,1.7055,1.7055,0,1.6667,1.6701,1.6724,1.6749,1.6787,1.6802,1.6839,1.6855,1.6879,1.6906,1.6912,1.6937,1.6955,1.6983,1.6994,1.7031,1.704,1.7047,1.7049,1.7045,1.7044,1.7055,1.7052,1.7056,1.7056,1.7056,1.7055,0,1.6703,1.6721,1.6765,1.6796,1.6805,1.6831,1.6857,1.6881,1.6895,1.6929,1.6938,1.696,1.6993,1.7009,1.7051,1.7058,1.7099,1.7101,1.7089,1.7089,1.7108,1.7105,1.7171,1.718,1.7135,1.7136,1.7136,0,1.6733,1.6759,1.6793,1.6811,1.6828,1.6858,1.6877,1.6892,1.6912,1.6945,1.6964,1.6997,1.7024,1.7075,1.7094,1.7125,1.7126,1.7147,1.7131,1.7125,1.7124,1.7121,1.7123,1.7149,1.715,1.715,1.7151,0,1.6783,1.679,1.6818,1.6849,1.6872,1.6897,1.6922,1.6937,1.6955,1.6978,1.701,1.7031,1.7072,1.7103,1.7135,1.7151,1.7153,1.7156,1.7161,1.7157,1.7148,1.7151,1.7095,1.7154,1.7153,1.7153,1.7153,1.7153,1.6816,1.6838,1.6864,1.6895,1.6915,1.6938,1.696,1.6977,1.7005,1.7038,1.7045,1.7079,1.7105,1.7148,1.7164,1.7191,1.7186,1.7195,1.7197,1.7199,1.7199,1.7145,1.7197,1.7197,1.7197,1.7197,1.7196,0,1.6864,1.6881,1.6909,1.6942,1.6966,1.6966,1.6993,1.7013,1.7042,1.7066,1.7092,1.7128,1.7158,1.7179,1.721,1.7226,1.7228,1.7234,1.7232,1.7235,1.7202,1.7193,1.7232,1.7232,1.7232,1.7232,1.7232,1.7232,1.6892,1.6929,1.6938,1.6985,1.7001,1.7034,1.7049,1.7069,1.7088,1.7128,1.7153,1.7166,1.7188,1.722,1.7247,1.7252,1.7262,1.7268,1.7273,1.7241,1.7238,1.7234,1.7225,1.727,1.727,1.7303,1.7304,1.7304]},{"header":{"parameterUnit":"m.s-1","parameterCategory":1,"la1":30.2991,"la2":30.254,"lo1":-89.0895,"lo2":-89.0444,"dy":0.0017,"dx":0.0017,"nx":28,"ny":28,"refTime":"2025-06-13T21:00:00:Z","depth":0,"parameterNumber":3,"parameterNumberName":"V-component_of_WINDS"},"data":[0,0,0,0,0,0,0,0,0,0,0,0,0,0,0,0,0,0,0,0,0,0,0,0,0,0,0,0,0,0,0,0,0,0,0,0,0,0,0,0,0,0,0,0,0,0,0,0,0,0,0,0,0,0,0,0,0,0,3.8302,3.8303,0,3.839,3.8391,3.8392,3.835,3.8348,3.8346,3.8343,3.8429,3.8433,3.8438,0,0,0,0,0,0,0,0,0,0,0,0,0,3.8092,3.8096,3.8302,3.8303,3.8305,3.839,3.8391,3.8392,3.835,3.8348,3.8345,3.8342,3.8428,3.8433,3.8438,0,0,0,0,0,0,0,0,0,0,0,0,0,3.8182,3.8097,3.8302,3.8294,3.8294,3.839,3.8391,3.8393,3.8351,3.8348,3.8344,3.8341,3.8426,3.8432,3.8439,3.8546,0,0,3.8459,3.8462,0,0,0,0,0,0,0,0,3.8177,3.8189,3.8294,3.8295,3.8295,3.8356,3.8348,3.8444,3.8352,3.8329,3.8343,3.8339,3.8407,3.8415,3.8439,3.855,3.8554,3.8459,3.8463,3.8466,3.8468,0,0,0,0,0,0,0,3.817,3.8185,3.8337,3.8296,3.8296,3.8284,3.8293,3.8366,3.8386,3.8331,3.8328,3.8339,3.8407,3.8432,3.844,3.8555,3.8459,3.8465,3.8469,3.8472,3.8755,3.8758,0,0,0,0,0,0,3.8165,3.818,3.8334,3.834,3.8227,3.829,3.83,3.834,3.8385,3.8389,3.8342,3.8337,3.8423,3.8433,3.8443,3.857,3.8466,3.8472,3.8476,3.8751,3.8756,3.876,0,0,0,0,0,0,3.8161,3.8179,3.8331,3.8259,3.8278,3.8297,3.8342,3.8343,3.8369,3.8393,3.8396,3.8365,3.8421,3.8434,3.852,3.8572,3.8475,3.8481,3.8747,3.8753,3.8758,3.8825,0,0,0,0,0,0,3.8155,3.8178,3.8221,3.8261,3.8282,3.8409,3.8345,3.8347,3.8381,3.8375,3.8416,3.8419,3.8419,3.8511,3.8527,3.8579,3.8486,3.8742,3.8749,3.8756,3.8818,3.8832,3.8844,0,0,0,0,0,3.8148,3.8236,3.8224,3.8242,3.8336,3.8412,3.8423,3.8423,3.8385,3.8427,3.8442,3.8418,3.8564,3.852,3.8538,3.8593,3.8739,3.8747,3.8755,3.8812,3.8829,3.8843,0,0,0,0,0,0,3.8202,3.8242,3.8228,3.8332,3.8369,3.8405,3.8458,3.8441,3.8488,3.8481,3.8476,3.8485,3.8574,3.8592,3.8543,3.8697,3.8645,3.8657,3.8683,3.8699,3.8711,3.8705,3.8492,0,0,0,0,0,3.8226,3.8286,3.8317,3.8406,3.8425,3.8438,3.8471,3.8467,3.8504,3.8519,3.8541,3.8577,3.863,3.8665,3.8716,3.882,3.8827,3.8866,3.8879,3.889,3.89,3.8953,3.897,3.8786,3.8786,3.8786,0,0,3.8277,3.8306,3.8344,3.8417,3.8445,3.8505,3.8452,3.8518,3.8561,3.8529,3.8612,3.8628,3.8667,3.8762,3.8805,3.878,3.8952,3.89,3.8908,3.8913,3.8963,3.898,3.8996,3.8792,3.8791,3.879,0,0,3.8399,3.8428,3.8504,3.8533,3.8576,3.8583,3.8602,3.8639,3.8649,3.8732,3.8708,3.8758,3.8852,3.888,3.8906,3.9035,3.9013,3.9051,3.9118,3.917,3.9184,3.9197,3.9241,3.9257,3.9062,3.9062,3.9062,0,3.8456,3.8547,3.8545,3.8613,3.8644,3.8618,3.8693,3.872,3.8777,3.8799,3.877,3.8884,3.8908,3.9008,3.9039,3.9062,3.908,3.9047,3.9183,3.9196,3.9207,3.9249,3.9266,3.9066,3.9066,3.9065,3.9065,0,3.8613,3.8677,3.8732,3.8788,3.8826,3.8897,3.8904,3.8942,3.8933,3.8943,3.9026,3.9054,3.9109,3.9132,3.9125,3.9229,3.9212,3.9183,3.9131,3.9229,3.9268,3.9284,3.9072,3.9071,3.9069,3.9068,0,0,3.8774,3.8826,3.8847,3.887,3.8914,3.8962,3.903,3.9084,3.9115,3.9155,3.921,3.9288,3.926,3.929,3.9285,3.9331,3.9428,3.9296,3.9296,3.9318,3.9542,3.9563,3.9581,3.9414,3.9417,3.9419,3.9538,0,3.8898,3.902,3.9018,3.9129,3.9185,3.9159,3.9218,3.925,3.926,3.9307,3.9318,3.9372,3.9333,3.9351,3.9395,3.9407,3.9472,3.9398,3.9463,3.9465,3.9453,3.9602,3.9625,3.9736,3.9553,3.9556,3.9558,0,3.906,3.9104,3.9221,3.9254,3.9277,3.9331,3.9378,3.9425,3.9459,3.9463,3.9495,3.9482,3.9548,3.9494,3.9583,3.9533,3.9558,3.9568,3.9572,3.9578,3.9517,3.961,3.9771,3.9787,3.9582,3.958,3.9578,0,3.9163,3.9252,3.9333,3.9354,3.9395,3.9432,3.945,3.9481,3.9513,3.9553,3.9573,3.9621,3.9647,3.9683,3.9682,3.9643,3.9771,3.9718,3.9774,3.9774,3.9802,3.9801,3.9969,3.9821,3.9821,3.982,3.982,0,3.9301,3.9373,3.9379,3.9429,3.9507,3.9503,3.958,3.9595,3.9622,3.9672,3.9652,3.9698,3.9695,3.9741,3.9741,3.9813,3.9825,3.9828,3.9827,3.983,3.9829,3.9846,3.9838,3.9825,3.9824,3.9823,3.9822,0,3.943,3.9437,3.9523,3.9554,3.9563,3.9619,3.9644,3.969,3.9697,3.976,3.9775,3.9786,3.9839,3.9842,3.9903,3.9902,3.999,3.9981,3.9979,3.9977,4.0032,4.0027,4.0217,4.024,4.0078,4.008,4.0081,0,3.9517,3.9572,3.9608,3.964,3.9661,3.9714,3.9745,3.9742,3.9775,3.9816,3.9856,3.9908,3.9949,4.0035,4.0047,4.0093,4.0083,4.0147,4.009,4.009,4.0082,4.0079,4.0083,4.0158,4.016,4.0161,4.0162,0,3.9671,3.9671,3.9718,3.9766,3.9804,3.9842,3.9876,3.9903,3.9904,3.9942,3.9996,4.0028,4.009,4.014,4.0184,4.02,4.0181,4.018,4.0195,4.0198,4.0194,4.0195,4.0008,4.0176,4.0174,4.0173,4.0173,4.0172,3.978,3.9826,3.9858,3.9911,3.9936,3.9968,4.0012,4.0024,4.007,4.0121,4.0115,4.0175,4.0204,4.0261,4.0281,4.0326,4.0304,4.0326,4.0332,4.0337,4.0342,4.0187,4.0334,4.0334,4.0333,4.0333,4.0333,0,3.9931,3.995,3.9998,4.0047,4.0087,4.0066,4.0102,4.0136,4.019,4.0219,4.0259,4.032,4.0368,4.0383,4.0429,4.0462,4.0453,4.0474,4.0471,4.0474,4.036,4.0342,4.0479,4.0479,4.0479,4.0479,4.0479,4.0479,4.0014,4.0091,4.0094,4.0181,4.0199,4.0258,4.028,4.0308,4.0331,4.0401,4.044,4.045,4.0473,4.0519,4.0561,4.0564,4.0581,4.0605,4.0604,4.0497,4.0483,4.0468,4.0451,4.0609,4.0609,4.0714,4.0715,4.0715]}]]